This is the latest recevied weather packets stored in our database for station/object K9NZF-1. If no packets are shown the sender has not sent any weather packets the latest 1 day(s).
| Time | Temp. | Humidity | Pressure | Rain* | Wind** | Luminosity | Snow |
|---|---|---|---|---|---|---|---|
| 1778091237 | 11.67° C | 62% | 1013.1 hPa | 0 mm | - | 200 W/m² | - |
| 1778090929 | 11.67° C | 62% | 1013.1 hPa | 0 mm | - | 221 W/m² | - |
| 1778090626 | 11.67° C | 60% | 1013.1 hPa | 0 mm | - | 190 W/m² | - |
| 1778090561 | 11.67° C | 62% | 1013.1 hPa | 0 mm | - | 186 W/m² | - |
| 1778090500 | 11.67° C | 61% | 1013 hPa | 0 mm | - | 183 W/m² | - |
| 1778090378 | 11.67° C | 67% | 1013.2 hPa | 0 mm | - | 174 W/m² | - |
| 1778090014 | 11.67° C | 64% | 1013.1 hPa | 0 mm | - | 162 W/m² | - |
| 1778089953 | 11.67° C | 60% | 1013 hPa | 0 mm | - | 167 W/m² | - |
| 1778089711 | 11.67° C | 61% | 1012.9 hPa | 0 mm | - | 181 W/m² | - |
| 1778089345 | 11.67° C | 63% | 1012.9 hPa | 0 mm | - | 230 W/m² | - |
| 1778089225 | 11.67° C | 64% | 1013 hPa | 0 mm | - | 241 W/m² | - |
| 1778088864 | 11.67° C | 65% | 1012.9 hPa | 0 mm | - | 225 W/m² | - |
| 1778088319 | 11.67° C | 61% | 1013.1 hPa | 0 mm | - | 214 W/m² | - |
| 1778088132 | 12.22° C | 62% | 1013.2 hPa | 0 mm | - | 179 W/m² | - |
| 1778087950 | 12.22° C | 64% | 1013.3 hPa | 0 mm | - | 190 W/m² | - |
| 1778087888 | 12.22° C | 65% | 1013.2 hPa | 0 mm | - | 192 W/m² | - |
| 1778087762 | 12.22° C | 63% | 1013.2 hPa | 0 mm | - | 197 W/m² | - |
| 1778087700 | 12.22° C | 63% | 1013.2 hPa | 0 mm | - | 214 W/m² | - |
| 1778087639 | 12.22° C | 61% | 1013.3 hPa | 0 mm | - | 214 W/m² | - |
| 1778087581 | 12.22° C | 62% | 1013.2 hPa | 0 mm | - | 237 W/m² | - |
| 1778087088 | 12.22° C | 64% | 1013.1 hPa | 0 mm | - | 294 W/m² | - |
| 1778086965 | 12.22° C | 64% | 1013.1 hPa | 0 mm | - | 302 W/m² | - |
| 1778086606 | 12.78° C | 60% | 1013.1 hPa | 0 mm | - | 274 W/m² | - |
| 1778086543 | 12.78° C | 60% | 1013.1 hPa | 0 mm | - | 279 W/m² | - |
| 1778086417 | 12.78° C | 60% | 1013.1 hPa | 0 mm | - | 330 W/m² | - |
* Rain latest hour (hover to see other rain measurements)
** Current wind speed in m/s (hover to see current wind gust speed)